User: anonymous   Login
Location: Proctor
(47.8934°N, 114.3048°W)
Time: 11:46:16
(UTC+00:00)
Language:

Tiros 1 - Orbit

View from above orbital plane
View from above orbital plane
View from above satellite
View from above satellite

Ground track
Ground track

The orbit data is extracted from the following two-line orbital elements,

1 00029U 60002B   24172.65402675  .00000636  00000-0  12024-3 0  9997
2 00029  48.3779 232.4556 0023166  21.0483 339.1378 14.76410457434671
Epoch (UTC): 20 June 2024 15:41:47
Eccentricity: 0.0023166
inclination: 48.3779°
perigee height: 624 km
apogee height: 657 km
right ascension of ascending node: 232.4556°
argument of perigee: 21.0483°
revolutions per day: 14.76410457
mean anomaly at epoch: 339.1378°
orbit number at epoch: 43467

The dashed part of the orbit path shows where the satellite is in the earth's shadow,  

DLR